Погода в Первомайском

Россия / Карачаево-Черкесская Республика     43°56′17″N   42°28′53″E
темп.,
°C
ветер,
м/с
пор.,
м/с
влажн.,
%
обл.,
%
осадки,
мм/ч
давл.,
гПа
погр.,
м
26 июня, вс
вс2600:00+11ююв1194100 0.0 101114
03:00+11ю1190100 0.0 101010
06:00+13зсз118698 0.0 100956
09:00+14св0189100 0.3 1009264
12:00+13св1299100 8.4 1009139
15:00+14в2796100 4.4 1010455
18:00+14з2394100 0.3 101056
21:00+13зсз1193100 0.6 101121
27 июня, пн
пн2700:00+13юз2295100 1.7 101148
03:00+13зюз2292100 4.6 101135
06:00+13з119299 0.1 101221
09:00+16с228762 0.1 1012471
12:00+15ссв129198 0.1 1013388
15:00+20в4577100 0.3 1012995
18:00+17вюв2592100 3.9 1011344
21:00+15юз1197100 13.3 101320
28 июня, вт
вт2800:00+14ююв1192100 0.6 101311
03:00+14юв229298 0.7 101236
06:00+14вюв249485 0.1 1012177
09:00+16всв589798 0.3 1012520
12:00+17в698875 0.1 1012614
15:00+18в798096 0.1 1012881
18:00+17вюв4988100 0.6 1014716
21:00+14вюв31091100 0.9 1015228
29 июня, ср
ср2900:00+13юв389125 0.0 1014164
03:00+12юв22905 0.0 101423
06:00+14вюв27881 0.0 1014279
09:00+18в69705 0.0 1013725
12:00+20в910643 0.0 10131150
15:00+20в81068100 0.0 10131097
18:00+17вюв51174100 0.1 1014391
21:00+15юв2375100 0.1 101447
30 июня, чт
чт3000:00+12юв338955 0.0 101534
03:00+12вюв379752 0.0 1015204
06:00+14вюв489079 0.0 1014405
09:00+15в6991100 0.0 1014653
12:00+15в51092100 0.1 1015705
15:00+17вюв5985100 0.3 1015867
18:00+16вюв4108279 0.1 1015657
21:00+13юв36895 0.1 1016105